Location: Caltech
(34.1382°N, 118.1253°W)
Time: 18:15:20
(UTC-07:00)

ASTRO E2 - Visible Passes

Search period start: 28 March 2017 00:00
Search period end: 07 April 2017 00:00
Orbit: 516 x 522 km, 31.4° (Epoch: 27 March)

Date Brightness Start Highest point End Pass type
(mag) Time Alt. Az. Time Alt. Az. Time Alt. Az.
30 Mar 4.9 20:56:43 10° SSW 20:57:48 15° SSW 20:57:48 15° SSW visible
31 Mar 4.1 20:39:44 10° SW 20:42:30 24° S 20:42:30 24° S visible
01 Apr 3.7 20:22:47 10° SW 20:26:16 28° SSE 20:27:05 26° SE visible
02 Apr 3.6 20:05:53 10° SW 20:09:28 32° SSE 20:11:34 19° ESE visible
02 Apr 5.4 21:45:50 10° WSW 21:46:32 15° WSW 21:46:32 15° WSW visible
03 Apr 3.5 19:48:59 10° SW 19:52:40 35° SSE 19:55:58 12° E visible
03 Apr 4.6 21:29:04 10° WSW 21:30:55 25° WSW 21:30:55 25° WSW visible
04 Apr 3.5 21:12:17 10° W 21:15:13 43° SW 21:15:13 43° SW visible
05 Apr 2.8 20:55:31 10° W 20:59:28 58° S 20:59:28 58° S visible
06 Apr 2.9 20:38:44 10° W 20:42:41 57° S 20:43:40 43° SE visible
